LH962 EGPH-EDDF

Flight info

Callsign LH962
Flight time N/A
Altitude 25000
Route TLA6D TLA Y96 HAVEN/N0441F390 DCT OTBUN DCT AGPED DCT GODOS DCT AMGOD DCT SOGPO DCT DIXAT DIXAT1A
Aircraft A20N/M-SDE2E3FGHIRWXY/LB1

Departure

Time 2026-05-06 15:04
Airport Edinburgh Airport (EGPH)

Arrival

Time N/A
Airport Frankfurt Main Airport (EDDF)
Time Latitude Longitude Altitude Speed Heading
2026-05-06 14:49 55.94702 -3.36601 116 ft 0 kts 89°
2026-05-06 14:52 55.94702 -3.36615 116 ft 3 kts 89°
2026-05-06 14:53 55.94702 -3.36628 115 ft 1 kts 89°
2026-05-06 14:53 55.94702 -3.36630 115 ft 0 kts 89°
2026-05-06 14:53 55.94702 -3.36659 114 ft 3 kts 89°
2026-05-06 14:53 55.94701 -3.36692 116 ft 3 kts 75°
2026-05-06 14:54 55.94699 -3.36707 113 ft 1 kts 59°
2026-05-06 14:54 55.94683 -3.36735 114 ft 3 kts 10°
2026-05-06 14:54 55.94679 -3.36736 113 ft 0 kts
2026-05-06 14:59 55.94690 -3.36736 113 ft 4 kts
2026-05-06 14:59 55.94751 -3.36746 116 ft 13 kts 339°
2026-05-06 14:59 55.94853 -3.36781 116 ft 17 kts 358°
2026-05-06 15:00 55.94925 -3.36885 114 ft 14 kts 267°
2026-05-06 15:00 55.94871 -3.37055 113 ft 17 kts 238°
2026-05-06 15:00 55.94802 -3.37255 114 ft 20 kts 238°
2026-05-06 15:00 55.94725 -3.37486 113 ft 23 kts 238°
2026-05-06 15:01 55.94639 -3.37742 113 ft 25 kts 239°
2026-05-06 15:01 55.94544 -3.38022 114 ft 27 kts 239°
2026-05-06 15:01 55.94442 -3.38325 112 ft 29 kts 239°
2026-05-06 15:01 55.94354 -3.38580 113 ft 23 kts 239°
2026-05-06 15:02 55.94282 -3.38798 113 ft 14 kts 244°
2026-05-06 15:02 55.94323 -3.38908 113 ft 8 kts 330°
2026-05-06 15:02 55.94382 -3.38969 112 ft 13 kts 332°
2026-05-06 15:02 55.94429 -3.38931 114 ft 0 kts 59°
2026-05-06 15:03 55.94431 -3.38926 114 ft 2 kts 59°
2026-05-06 15:03 55.94483 -3.38773 112 ft 39 kts 58°
2026-05-06 15:04 55.94736 -3.38032 113 ft 101 kts 59°
2026-05-06 15:04 55.95199 -3.36681 222 ft 139 kts 57°
2026-05-06 15:04 55.95703 -3.35231 780 ft 139 kts 58°
2026-05-06 15:04 55.96280 -3.33790 1321 ft 147 kts 48°
2026-05-06 15:05 55.97041 -3.32532 1850 ft 154 kts 44°
2026-05-06 15:05 55.97897 -3.31166 2181 ft 175 kts 43°
2026-05-06 15:05 55.98863 -3.29656 2533 ft 194 kts 42°
2026-05-06 15:05 55.99943 -3.27967 2776 ft 219 kts 43°
2026-05-06 15:06 56.01136 -3.26076 3075 ft 239 kts 43°
2026-05-06 15:06 56.02426 -3.24009 3412 ft 258 kts 43°
2026-05-06 15:06 56.03782 -3.21824 3943 ft 266 kts 43°
2026-05-06 15:06 56.05085 -3.19467 4552 ft 268 kts 58°
2026-05-06 15:07 56.05636 -3.16330 5148 ft 268 kts 88°
2026-05-06 15:07 56.05585 -3.12981 5672 ft 271 kts 96°
2026-05-06 15:07 56.05186 -3.09674 6172 ft 274 kts 116°
2026-05-06 15:07 56.04045 -3.07042 6648 ft 275 kts 143°
2026-05-06 15:08 56.02417 -3.05243 7110 ft 276 kts 151°
2026-05-06 15:08 56.00785 -3.03433 7624 ft 277 kts 148°
2026-05-06 15:08 55.99188 -3.01464 8091 ft 280 kts 146°
2026-05-06 15:08 55.97614 -2.99407 8576 ft 280 kts 149°
2026-05-06 15:09 55.95807 -2.98202 9002 ft 279 kts 175°
2026-05-06 15:09 55.93902 -2.98566 9393 ft 278 kts 201°
2026-05-06 15:09 55.92223 -3.00248 9779 ft 278 kts 215°
2026-05-06 15:09 55.90618 -3.02193 10148 ft 280 kts 214°
2026-05-06 15:10 55.88925 -3.04038 10251 ft 291 kts 210°
2026-05-06 15:10 55.87106 -3.05753 10339 ft 301 kts 207°
2026-05-06 15:10 55.85185 -3.07385 10426 ft 310 kts 206°
2026-05-06 15:10 55.83195 -3.08991 10507 ft 318 kts 205°